Torna al catalogo

COSMOS 397 DEB

AttivoLEO
NORAD 5013·DEBRIS·🇷🇺 Russia

Lanciato Feb 25, 1971 da Baikonur Cosmodrome

Loading…

Prossimi Passaggi

TLE

Source: Space-Track
1  5013U 71015G   26224.21809916  .00000091  00000-0  69257-4 0  9998
2  5013  65.8123 295.0841 0834270  72.6082 296.4370 13.18411225611922

Traccia COSMOS 397 DEB in tempo reale con AllMySat

Download on the App Store